RH
66 53 51 53 45 44 42 43 48 53 56 59 58 63 61 70 50 54 54 61 61 43
64 65 52 56 53 47 53 42 51 54 56 55 55 58 61 50 55 54 56 53 57 54
58 63 62 57 61 59 51 56 57 56 56 56 56 59 61 54 54 59 50 44 54 58
54 56 60 58 59 62 60 60 64 63 62 60 62 60 65 64 59 62 65 59 59 64
58 58 54 58 57 60 64 60 62 63 67 62 59 62 63 59 53 61 64 63 68 65
59 58 58 57 59 60 63 64 55 59 65 67 61 67 63 62 60 59 58 58 63 66
69 58 54 58 61 60 62 64 62 59 60 61 62 58 57 58 63 61 57 63 64 61
70 63 63 64 63 63 63 62 63 68 61 60 55 48 59 57 57 66 63 62 64 63
68 71 68 70 69 68 68 66 67 68 66 64 49 65 77 67 56 58 65 64 68 65
72 72 74 74 74 75 72 70 75 69 66 66 63 80 86 88 50 57 66 67 68 68
71 74 75 81 79 78 73 75 78 74 69 68 63 90 91 93 63 64 68 68 72 77
72 74 73 75 74 72 79 82 81 72 73 73 69 97 98 94 69 82 82 78 75 75
82 83 83 80 77 74 71 81 74 79 80 81 79 100 100 89 66 87 84 76 77 88
83 89 88 92 87 77 78 82 89 88 88 85 84 96 100 100 71 71 77 64 66 59
Wind_Speed
14 10 10 11 9 7 9 6 8 9 10 9 8 8 6 5 7 7 6 7 5 6
14 14 11 11 10 9 9 8 7 9 10 10 10 9 7 8 7 7 7 7 7 7
15 14 13 11 11 11 10 9 9 9 10 10 11 10 9 9 9 9 8 8 7 6
15 16 15 14 13 13 12 11 10 10 10 10 10 11 9 11 11 7 10 9 9 9
14 14 15 15 16 14 13 13 12 12 11 12 12 11 12 11 11 10 11 11 10 11
12 14 15 15 15 15 14 14 14 13 12 12 12 11 12 12 12 12 11 11 10 10
10 13 13 13 13 14 14 14 14 15 14 13 13 13 12 11 11 12 11 10 9 10
12 13 11 12 13 13 13 13 15 14 15 15 14 11 13 13 12 11 12 11 8 10
11 10 12 12 13 13 14 14 14 15 16 16 13 12 11 11 11 11 10 10 7 5
9 11 11 12 13 13 15 15 14 15 16 16 16 9 12 13 13 10 9 9 8 8
8 10 11 11 14 15 15 16 14 15 17 15 13 12 15 13 13 10 10 8 8 9
8 11 13 14 15 16 14 14 14 16 16 15 15 13 14 14 12 7 8 8 7 7
11 13 14 15 16 16 16 14 14 15 16 15 16 15 16 17 9 11 9 9 8 10
11 11 13 15 15 16 15 14 14 14 12 12 12 12 15 15 14 12 11 10 9 7
Wind_Direction
213 221 224 229 245 211 250 222 216 206 227 220 235 232 214 215 239 221 231 239 260 290
207 223 227 238 220 231 242 257 233 226 223 222 222 235 240 242 230 260 229 243 239 256
206 210 219 224 230 245 252 235 251 227 226 224 224 227 232 255 228 238 245 239 238 254
212 210 208 213 222 232 240 235 226 228 228 232 237 233 230 239 276 241 246 251 260 248
218 223 219 217 213 217 226 234 234 231 221 229 228 233 232 238 246 234 251 261 262 266
220 222 231 226 225 218 219 224 233 230 230 219 230 231 235 239 248 248 246 243 252 259
214 233 230 235 235 233 224 228 233 231 227 233 230 229 229 234 239 248 246 251 258 262
216 222 233 249 237 236 238 232 238 243 239 231 230 230 226 234 238 240 250 259 247 248
243 239 241 238 239 234 232 235 240 241 238 240 237 218 193 228 229 235 242 259 258 215
264 257 246 238 239 239 237 237 230 235 236 234 242 208 188 193 230 231 234 240 231 205
289 281 275 272 253 240 237 236 230 230 229 230 230 195 187 187 224 225 228 218 193 200
294 282 279 272 259 255 244 233 225 228 229 228 232 169 176 182 206 187 176 172 168 158
305 292 282 277 269 264 251 239 236 227 231 227 226 167 187 187 186 166 165 153 139 60
309 294 285 280 257 255 250 240 233 234 227 227 222 180 190 220 176 174 171 155 150 132